HAZ2172 ZLDH-ZSHC

Flight info

Callsign HAZ2172
Flight time 3h 21m
Altitude 35100
Route VIKUP W191 DNC W565 BIGUX W214 HO H14 P396 H131 ATGEN W283 SUDGO H132 P234 H36 SNF W269 OLPOV B213 WHA R343 SAGUD W50 XSH H17 JDZ H26 TXN G204 OREXA
Aircraft A321/M-SDE3FGHIRWY/LB1D1

Departure

Time 2026-04-23 05:47
Airport Dunhuang Mogao International Airport (ZLDH)

Arrival

Time 2026-04-23 09:08
Airport Hangzhou Xiaoshan International Airport (ZSHC)
Time Latitude Longitude Altitude Speed Heading
2026-04-23 05:31 40.16491 94.80542 3699 ft 0 kts 354°
2026-04-23 05:39 40.16474 94.80544 3699 ft 4 kts 354°
2026-04-23 05:39 40.16453 94.80547 3699 ft 3 kts 354°
2026-04-23 05:39 40.16426 94.80550 3699 ft 4 kts
2026-04-23 05:39 40.16400 94.80545 3699 ft 4 kts 32°
2026-04-23 05:40 40.16389 94.80523 3699 ft 4 kts 84°
2026-04-23 05:40 40.16387 94.80497 3699 ft 0 kts 84°
2026-04-23 05:41 40.16388 94.80501 3704 ft 2 kts 84°
2026-04-23 05:42 40.16392 94.80547 3699 ft 8 kts 83°
2026-04-23 05:42 40.16400 94.80645 3699 ft 14 kts 83°
2026-04-23 05:42 40.16412 94.80797 3699 ft 20 kts 84°
2026-04-23 05:42 40.16426 94.80981 3699 ft 20 kts 84°
2026-04-23 05:43 40.16442 94.81181 3699 ft 24 kts 84°
2026-04-23 05:43 40.16440 94.81297 3706 ft 8 kts 123°
2026-04-23 05:43 40.16388 94.81316 3700 ft 8 kts 170°
2026-04-23 05:43 40.16287 94.81335 3696 ft 21 kts 173°
2026-04-23 05:44 40.16209 94.81407 3693 ft 14 kts 89°
2026-04-23 05:44 40.16220 94.81572 3692 ft 22 kts 84°
2026-04-23 05:44 40.16238 94.81804 3694 ft 27 kts 84°
2026-04-23 05:44 40.16255 94.82032 3696 ft 24 kts 84°
2026-04-23 05:45 40.16273 94.82249 3698 ft 25 kts 84°
2026-04-23 05:45 40.16291 94.82475 3699 ft 25 kts 84°
2026-04-23 05:45 40.16308 94.82692 3700 ft 23 kts 84°
2026-04-23 05:45 40.16324 94.82899 3698 ft 22 kts 84°
2026-04-23 05:46 40.16376 94.83071 3705 ft 20 kts 55°
2026-04-23 05:46 40.16389 94.83201 3698 ft 11 kts 128°
2026-04-23 05:46 40.16348 94.83185 3698 ft 6 kts 255°
2026-04-23 05:46 40.16342 94.83131 3698 ft 9 kts 263°
2026-04-23 05:47 40.16319 94.82833 3699 ft 66 kts 264°
2026-04-23 05:47 40.16250 94.81964 3696 ft 124 kts 264°
2026-04-23 05:47 40.16146 94.80633 3696 ft 168 kts 264°
2026-04-23 05:47 40.16029 94.79003 4027 ft 183 kts 265°
2026-04-23 05:48 40.15893 94.77396 4723 ft 180 kts 264°
2026-04-23 05:48 40.15738 94.75770 5380 ft 179 kts 263°
2026-04-23 05:48 40.15581 94.74126 5667 ft 189 kts 264°
2026-04-23 05:48 40.15418 94.72362 5817 ft 203 kts 264°
2026-04-23 05:49 40.15245 94.70464 5934 ft 218 kts 263°
2026-04-23 05:49 40.15058 94.68433 6067 ft 235 kts 263°
2026-04-23 05:49 40.14858 94.66237 6255 ft 250 kts 264°
2026-04-23 05:49 40.14647 94.63891 6524 ft 267 kts 264°
2026-04-23 05:50 40.14408 94.61452 7072 ft 274 kts 258°
2026-04-23 05:50 40.13561 94.59238 7621 ft 279 kts 226°
2026-04-23 05:50 40.11879 94.57965 8202 ft 287 kts 193°
2026-04-23 05:50 40.09878 94.57987 8781 ft 294 kts 171°
2026-04-23 05:51 40.07876 94.58634 9392 ft 298 kts 167°
2026-04-23 05:51 40.05863 94.59316 9995 ft 300 kts 167°
2026-04-23 05:51 40.03839 94.60002 10330 ft 313 kts 167°
2026-04-23 05:51 40.01661 94.60711 10470 ft 332 kts 170°
2026-04-23 05:52 39.99313 94.61219 10600 ft 353 kts 170°
2026-04-23 05:52 39.96901 94.62186 10721 ft 373 kts 156°
2026-04-23 05:52 39.94724 94.64141 10897 ft 391 kts 135°
2026-04-23 05:52 39.93200 94.67100 11327 ft 398 kts 113°
2026-04-23 05:53 39.92564 94.70610 11848 ft 402 kts 93°
2026-04-23 05:53 39.92526 94.74262 12403 ft 404 kts 90°
2026-04-23 05:53 39.92518 94.77932 12959 ft 407 kts 89°
2026-04-23 05:53 39.92504 94.81641 13457 ft 412 kts 89°
2026-04-23 05:54 39.92484 94.85386 13943 ft 415 kts 89°
2026-04-23 05:54 39.92458 94.89169 14404 ft 419 kts 89°
2026-04-23 05:54 39.92431 94.92990 14863 ft 423 kts 89°
2026-04-23 05:54 39.92402 94.96842 15330 ft 427 kts 89°
2026-04-23 05:55 39.92368 95.00723 15785 ft 430 kts 89°
2026-04-23 05:55 39.92330 95.04636 16237 ft 434 kts 89°
2026-04-23 05:55 39.92291 95.08573 16670 ft 437 kts 89°
2026-04-23 05:55 39.92185 95.12550 17086 ft 441 kts 95°
2026-04-23 05:56 39.91627 95.16492 17496 ft 446 kts 105°
2026-04-23 05:56 39.90554 95.20299 17897 ft 450 kts 115°
2026-04-23 05:56 39.89169 95.23961 18308 ft 453 kts 116°
2026-04-23 05:56 39.87764 95.27645 18718 ft 456 kts 116°
2026-04-23 05:57 39.86352 95.31357 19115 ft 459 kts 116°
2026-04-23 05:57 39.84938 95.35085 19515 ft 462 kts 116°
2026-04-23 05:57 39.83511 95.38855 19890 ft 465 kts 116°
2026-04-23 05:57 39.82078 95.42647 20251 ft 468 kts 116°
2026-04-23 05:58 39.80638 95.46457 20626 ft 471 kts 116°
2026-04-23 05:58 39.79183 95.50290 21001 ft 474 kts 115°
2026-04-23 05:58 39.77719 95.54141 21351 ft 477 kts 115°
2026-04-23 05:58 39.76246 95.58024 21711 ft 480 kts 115°
2026-04-23 05:59 39.74774 95.61921 22041 ft 483 kts 115°
2026-04-23 05:59 39.73293 95.65847 22368 ft 485 kts 115°
2026-04-23 05:59 39.71805 95.69792 22691 ft 487 kts 115°
2026-04-23 05:59 39.70307 95.73756 23025 ft 490 kts 115°
2026-04-23 06:00 39.68820 95.77684 23328 ft 493 kts 115°
2026-04-23 06:00 39.67301 95.81685 23651 ft 495 kts 115°
2026-04-23 06:00 39.65778 95.85693 23935 ft 497 kts 115°
2026-04-23 06:00 39.64241 95.89733 24212 ft 500 kts 115°
2026-04-23 06:01 39.62697 95.93788 24495 ft 503 kts 115°
2026-04-23 06:01 39.61144 95.97863 24783 ft 505 kts 115°
2026-04-23 06:01 39.59584 96.01952 25068 ft 508 kts 115°
2026-04-23 06:01 39.58013 96.06060 25364 ft 510 kts 115°
2026-04-23 06:02 39.56431 96.10187 25656 ft 512 kts 115°
2026-04-23 06:02 39.54833 96.14317 25920 ft 514 kts 116°
2026-04-23 06:02 39.53208 96.18453 26226 ft 514 kts 116°
2026-04-23 06:02 39.51578 96.22568 26573 ft 515 kts 116°
2026-04-23 06:03 39.49935 96.26689 26911 ft 515 kts 116°
2026-04-23 06:03 39.48296 96.30808 27239 ft 515 kts 116°
2026-04-23 06:03 39.46664 96.34930 27569 ft 515 kts 116°
2026-04-23 06:03 39.45034 96.39046 27899 ft 514 kts 116°
2026-04-23 06:04 39.43399 96.43163 28209 ft 514 kts 116°
2026-04-23 06:04 39.41762 96.47267 28508 ft 514 kts 116°
2026-04-23 06:04 39.40125 96.51366 28823 ft 513 kts 116°
2026-04-23 06:04 39.38488 96.55469 29108 ft 514 kts 116°
2026-04-23 06:05 39.36852 96.59572 29386 ft 514 kts 116°
2026-04-23 06:05 39.35215 96.63676 29676 ft 513 kts 116°
2026-04-23 06:05 39.33578 96.67769 29962 ft 513 kts 116°
2026-04-23 06:05 39.31960 96.71811 30245 ft 513 kts 116°
2026-04-23 06:06 39.30322 96.75896 30546 ft 513 kts 116°
2026-04-23 06:06 39.28677 96.79981 30828 ft 512 kts 116°
2026-04-23 06:06 39.27034 96.84055 31121 ft 512 kts 116°
2026-04-23 06:06 39.25399 96.88125 31402 ft 511 kts 116°
2026-04-23 06:07 39.23776 96.92208 31717 ft 510 kts 116°
2026-04-23 06:07 39.22170 96.96277 32017 ft 510 kts 116°
2026-04-23 06:07 39.20564 97.00356 32298 ft 509 kts 116°
2026-04-23 06:07 39.18961 97.04426 32567 ft 509 kts 116°
2026-04-23 06:08 39.17360 97.08488 32862 ft 508 kts 116°
2026-04-23 06:08 39.15753 97.12545 33101 ft 508 kts 116°
2026-04-23 06:08 39.14143 97.16594 33358 ft 508 kts 116°
2026-04-23 06:08 39.12529 97.20638 33609 ft 507 kts 116°
2026-04-23 06:09 39.10914 97.24668 33858 ft 506 kts 116°
2026-04-23 06:09 39.09299 97.28698 34094 ft 506 kts 116°
2026-04-23 06:09 39.07687 97.32716 34355 ft 505 kts 116°
2026-04-23 06:09 39.06074 97.36738 34574 ft 505 kts 116°
2026-04-23 06:10 39.04464 97.40746 34774 ft 505 kts 116°
2026-04-23 06:10 39.02851 97.44761 34981 ft 505 kts 116°
2026-04-23 06:10 39.01238 97.48784 35061 ft 506 kts 116°
2026-04-23 06:11 38.98011 97.56808 35066 ft 505 kts 116°
2026-04-23 06:11 38.94767 97.64823 35067 ft 505 kts 116°
2026-04-23 06:12 38.91506 97.72799 35082 ft 505 kts 117°
2026-04-23 06:12 38.86576 97.84669 35081 ft 504 kts 117°
2026-04-23 06:13 38.83811 97.91320 35081 ft 505 kts 117°
2026-04-23 06:13 38.79979 98.00557 35092 ft 504 kts 117°
2026-04-23 06:14 38.77212 98.07194 35095 ft 504 kts 117°
2026-04-23 06:14 38.73898 98.15112 35090 ft 504 kts 118°
2026-04-23 06:15 38.70575 98.23015 35098 ft 504 kts 118°
2026-04-23 06:15 38.67260 98.30919 35098 ft 504 kts 118°
2026-04-23 06:16 38.63974 98.38761 35098 ft 503 kts 118°
2026-04-23 06:16 38.60645 98.46643 35087 ft 503 kts 118°
2026-04-23 06:17 38.57302 98.54504 35066 ft 504 kts 118°
2026-04-23 06:17 38.53958 98.62371 35060 ft 504 kts 118°
2026-04-23 06:18 38.50613 98.70247 35065 ft 505 kts 118°
2026-04-23 06:18 38.47258 98.78127 35063 ft 505 kts 118°
2026-04-23 06:19 38.43897 98.85986 35071 ft 504 kts 118°
2026-04-23 06:19 38.40531 98.93836 35073 ft 505 kts 118°
2026-04-23 06:20 38.37157 99.01679 35071 ft 504 kts 118°
2026-04-23 06:20 38.33781 99.09506 35076 ft 504 kts 118°
2026-04-23 06:21 38.30399 99.17335 35085 ft 505 kts 118°
2026-04-23 06:21 38.27007 99.25158 35084 ft 504 kts 118°
2026-04-23 06:22 38.23617 99.32972 35085 ft 504 kts 118°
2026-04-23 06:22 38.20236 99.40770 35080 ft 504 kts 119°
2026-04-23 06:23 38.16844 99.48570 35075 ft 504 kts 118°
2026-04-23 06:23 38.13518 99.56407 35071 ft 504 kts 118°
2026-04-23 06:24 38.10232 99.64269 35070 ft 504 kts 118°
2026-04-23 06:24 38.06953 99.72061 35077 ft 504 kts 118°
2026-04-23 06:25 38.03630 99.79893 35082 ft 504 kts 118°
2026-04-23 06:25 38.00307 99.87712 35083 ft 504 kts 118°
2026-04-23 06:26 37.96975 99.95527 35082 ft 504 kts 118°
2026-04-23 06:26 37.93642 100.03334 35078 ft 504 kts 118°
2026-04-23 06:27 37.90303 100.11129 35084 ft 504 kts 118°
2026-04-23 06:27 37.86957 100.18920 35078 ft 504 kts 118°
2026-04-23 06:28 37.83601 100.26707 35089 ft 504 kts 118°
2026-04-23 06:28 37.80240 100.34484 35094 ft 503 kts 119°
2026-04-23 06:29 37.76884 100.42256 35095 ft 503 kts 118°
2026-04-23 06:29 37.73526 100.50007 35081 ft 503 kts 119°
2026-04-23 06:30 37.70162 100.57750 35079 ft 502 kts 119°
2026-04-23 06:30 37.66794 100.65480 35097 ft 502 kts 119°
2026-04-23 06:31 37.63452 100.73205 35096 ft 502 kts 118°
2026-04-23 06:31 37.60190 100.80983 35086 ft 501 kts 117°
2026-04-23 06:32 37.56964 100.88754 35095 ft 500 kts 118°
2026-04-23 06:32 37.53724 100.96445 35085 ft 499 kts 118°
2026-04-23 06:33 37.50451 101.04152 35097 ft 499 kts 118°
2026-04-23 06:33 37.47173 101.11844 35100 ft 498 kts 118°
2026-04-23 06:34 37.43896 101.19534 35102 ft 498 kts 118°
2026-04-23 06:34 37.40626 101.27205 35104 ft 497 kts 118°
2026-04-23 06:35 37.37354 101.34867 35104 ft 497 kts 118°
2026-04-23 06:35 37.34072 101.42510 35101 ft 497 kts 118°
2026-04-23 06:36 37.30795 101.50143 35101 ft 497 kts 116°
2026-04-23 06:36 37.28460 101.58273 35101 ft 495 kts 105°
2026-04-23 06:37 37.26574 101.66598 35096 ft 495 kts 105°
2026-04-23 06:37 37.24668 101.74904 35098 ft 495 kts 105°
2026-04-23 06:38 37.22750 101.83200 35098 ft 495 kts 105°
2026-04-23 06:38 37.20834 101.91497 35101 ft 495 kts 105°
2026-04-23 06:39 37.18920 101.99773 35098 ft 494 kts 105°
2026-04-23 06:39 37.16995 102.08040 35112 ft 494 kts 106°
2026-04-23 06:40 37.15081 102.16244 35116 ft 493 kts 105°
2026-04-23 06:40 37.13149 102.24475 35111 ft 492 kts 106°
2026-04-23 06:41 37.10871 102.32556 35102 ft 492 kts 117°
2026-04-23 06:41 37.07354 102.39899 35099 ft 492 kts 123°
2026-04-23 06:42 37.03729 102.47154 35096 ft 491 kts 123°
2026-04-23 06:42 37.00109 102.54403 35096 ft 491 kts 123°
2026-04-23 06:43 36.96478 102.61652 35096 ft 492 kts 123°
2026-04-23 06:43 36.92840 102.68899 35095 ft 492 kts 123°
2026-04-23 06:44 36.89198 102.76143 35106 ft 492 kts 123°
2026-04-23 06:44 36.85553 102.83373 35118 ft 492 kts 123°
2026-04-23 06:45 36.81917 102.90603 35108 ft 492 kts 120°
2026-04-23 06:45 36.78881 102.98257 35102 ft 492 kts 116°
2026-04-23 06:46 36.75911 103.05947 35102 ft 492 kts 116°
2026-04-23 06:46 36.72951 103.13584 35104 ft 492 kts 116°
2026-04-23 06:47 36.69972 103.21256 35106 ft 492 kts 116°
2026-04-23 06:47 36.66974 103.28931 35109 ft 492 kts 116°
2026-04-23 06:48 36.63979 103.36579 35110 ft 491 kts 116°
2026-04-23 06:48 36.60982 103.44231 35107 ft 491 kts 116°
2026-04-23 06:49 36.57990 103.51868 35108 ft 491 kts 116°
2026-04-23 06:49 36.54992 103.59490 35107 ft 491 kts 116°
2026-04-23 06:50 36.51850 103.67020 35107 ft 490 kts 120°
2026-04-23 06:50 36.48386 103.74319 35107 ft 490 kts 122°
2026-04-23 06:51 36.44852 103.81550 35106 ft 490 kts 121°
2026-04-23 06:51 36.41388 103.88844 35106 ft 490 kts 120°
2026-04-23 06:52 36.37973 103.96157 35101 ft 490 kts 120°
2026-04-23 06:52 36.34547 104.03476 35102 ft 490 kts 120°
2026-04-23 06:53 36.31104 104.10765 35105 ft 490 kts 121°
2026-04-23 06:53 36.27673 104.17995 35107 ft 490 kts 121°
2026-04-23 06:54 36.24201 104.25320 35105 ft 489 kts 121°
2026-04-23 06:54 36.20774 104.32530 35105 ft 489 kts 121°
2026-04-23 06:55 36.17324 104.39778 35106 ft 489 kts 121°
2026-04-23 06:55 36.13866 104.47023 35106 ft 489 kts 121°
2026-04-23 06:56 36.10408 104.54261 35103 ft 489 kts 121°
2026-04-23 06:56 36.06945 104.61487 35100 ft 488 kts 121°
2026-04-23 06:57 36.03470 104.68699 35099 ft 488 kts 121°
2026-04-23 06:57 35.99998 104.75898 35101 ft 488 kts 121°
2026-04-23 06:58 35.96517 104.83102 35070 ft 488 kts 121°
2026-04-23 06:58 35.93039 104.90312 35078 ft 490 kts 121°
2026-04-23 06:59 35.89547 104.97528 35076 ft 490 kts 121°
2026-04-23 06:59 35.86057 105.04748 35075 ft 490 kts 121°
2026-04-23 07:00 35.82574 105.11983 35081 ft 491 kts 121°
2026-04-23 07:00 35.79107 105.19162 35081 ft 491 kts 121°
2026-04-23 07:01 35.75606 105.26375 35077 ft 491 kts 121°
2026-04-23 07:01 35.72117 105.33576 35074 ft 490 kts 121°
2026-04-23 07:02 35.68618 105.40770 35078 ft 490 kts 121°
2026-04-23 07:02 35.65113 105.47956 35081 ft 490 kts 121°
2026-04-23 07:03 35.61601 105.55138 35075 ft 490 kts 121°
2026-04-23 07:03 35.58081 105.62302 35075 ft 490 kts 121°
2026-04-23 07:04 35.54617 105.69504 35068 ft 490 kts 116°
2026-04-23 07:04 35.52411 105.77370 35063 ft 488 kts 99°
2026-04-23 07:05 35.51209 105.85561 35068 ft 488 kts 99°
2026-04-23 07:05 35.50191 105.92365 35066 ft 488 kts 99°
2026-04-23 07:06 35.48951 106.00555 35064 ft 488 kts 99°
2026-04-23 07:06 35.47705 106.08730 35063 ft 488 kts 99°
2026-04-23 07:07 35.46460 106.16912 35067 ft 488 kts 99°
2026-04-23 07:07 35.45216 106.25096 35058 ft 488 kts 99°
2026-04-23 07:08 35.43961 106.33267 35058 ft 488 kts 99°
2026-04-23 07:08 35.42707 106.41399 35055 ft 488 kts 99°
2026-04-23 07:09 35.41441 106.49629 35054 ft 488 kts 99°
2026-04-23 07:09 35.40177 106.57759 35052 ft 489 kts 100°
2026-04-23 07:10 35.38898 106.65939 35053 ft 489 kts 100°
2026-04-23 07:10 35.37608 106.74137 35052 ft 490 kts 100°
2026-04-23 07:11 35.36318 106.82334 35055 ft 490 kts 100°
2026-04-23 07:12 35.34362 106.94628 35053 ft 490 kts 100°
2026-04-23 07:12 35.33058 107.02826 35049 ft 490 kts 100°
2026-04-23 07:13 35.31762 107.11014 35047 ft 490 kts 100°
2026-04-23 07:13 35.30457 107.19202 35047 ft 490 kts 100°
2026-04-23 07:14 35.29137 107.27396 35048 ft 490 kts 100°
2026-04-23 07:14 35.27820 107.35527 35047 ft 490 kts 100°
2026-04-23 07:15 35.26495 107.43711 35044 ft 491 kts 100°
2026-04-23 07:15 35.25166 107.51897 35040 ft 491 kts 100°
2026-04-23 07:16 35.23819 107.60083 35038 ft 491 kts 101°
2026-04-23 07:16 35.22449 107.68262 35030 ft 491 kts 101°
2026-04-23 07:17 35.20215 107.76115 35025 ft 490 kts 119°
2026-04-23 07:17 35.16216 107.82797 35022 ft 487 kts 136°
2026-04-23 07:18 35.11469 107.88721 35020 ft 488 kts 136°
2026-04-23 07:18 35.06720 107.94636 35025 ft 488 kts 136°
2026-04-23 07:19 35.01964 108.00544 35029 ft 488 kts 136°
2026-04-23 07:19 34.97198 108.06454 35029 ft 488 kts 137°
2026-04-23 07:20 34.92437 108.12357 35027 ft 488 kts 137°
2026-04-23 07:20 34.87699 108.18209 35027 ft 489 kts 137°
2026-04-23 07:21 34.82920 108.24098 35026 ft 489 kts 137°
2026-04-23 07:21 34.78143 108.29985 35027 ft 489 kts 137°
2026-04-23 07:22 34.73357 108.35872 35028 ft 489 kts 137°
2026-04-23 07:22 34.68565 108.41752 35030 ft 489 kts 137°
2026-04-23 07:23 34.63759 108.47612 35027 ft 489 kts 140°
2026-04-23 07:23 34.58240 108.52248 35023 ft 479 kts 159°
2026-04-23 07:24 34.51996 108.54735 35020 ft 470 kts 172°
2026-04-23 07:24 34.45618 108.56500 35020 ft 471 kts 172°
2026-04-23 07:25 34.39236 108.58301 35015 ft 471 kts 172°
2026-04-23 07:25 34.32849 108.60106 35017 ft 471 kts 172°
2026-04-23 07:26 34.26466 108.61893 35018 ft 471 kts 172°
2026-04-23 07:26 34.20072 108.63668 35024 ft 471 kts 172°
2026-04-23 07:27 34.13684 108.65443 35027 ft 471 kts 172°
2026-04-23 07:27 34.07422 108.67890 35029 ft 480 kts 157°
2026-04-23 07:28 34.01973 108.72609 35026 ft 489 kts 137°
2026-04-23 07:28 33.97492 108.78813 35017 ft 492 kts 134°
2026-04-23 07:29 33.93028 108.85059 35011 ft 492 kts 135°
2026-04-23 07:29 33.88547 108.91310 35014 ft 493 kts 135°
2026-04-23 07:30 33.84065 108.97563 35011 ft 494 kts 135°
2026-04-23 07:30 33.79577 109.03822 35007 ft 495 kts 135°
2026-04-23 07:31 33.75110 109.10048 35009 ft 495 kts 135°
2026-04-23 07:31 33.70577 109.16347 35042 ft 495 kts 135°
2026-04-23 07:32 33.66094 109.22560 35039 ft 496 kts 135°
2026-04-23 07:32 33.61574 109.28812 35033 ft 496 kts 135°
2026-04-23 07:33 33.57057 109.35060 35020 ft 495 kts 135°
2026-04-23 07:33 33.52530 109.41297 35019 ft 496 kts 135°
2026-04-23 07:34 33.47996 109.47540 35033 ft 496 kts 136°
2026-04-23 07:34 33.42810 109.52751 35026 ft 480 kts 156°
2026-04-23 07:35 33.36731 109.55623 35030 ft 463 kts 175°
2026-04-23 07:35 33.30446 109.56205 35035 ft 448 kts 189°
2026-04-23 07:36 33.24214 109.55981 35038 ft 448 kts 189°
2026-04-23 07:36 33.17977 109.55772 35041 ft 448 kts 189°
2026-04-23 07:37 33.11746 109.55576 35047 ft 448 kts 189°
2026-04-23 07:37 33.05523 109.55388 35042 ft 446 kts 189°
2026-04-23 07:38 32.99329 109.55189 35043 ft 445 kts 190°
2026-04-23 07:38 32.93138 109.54977 35047 ft 444 kts 190°
2026-04-23 07:39 32.86990 109.54775 35054 ft 445 kts 190°
2026-04-23 07:39 32.80817 109.54576 35062 ft 443 kts 190°
2026-04-23 07:40 32.74683 109.54380 35042 ft 439 kts 190°
2026-04-23 07:40 32.68554 109.54181 35056 ft 441 kts 191°
2026-04-23 07:41 32.62431 109.53983 35063 ft 441 kts 191°
2026-04-23 07:41 32.56296 109.53785 35073 ft 440 kts 191°
2026-04-23 07:42 32.50189 109.53591 35070 ft 438 kts 191°
2026-04-23 07:42 32.44107 109.53393 35069 ft 436 kts 192°
2026-04-23 07:43 32.38051 109.53200 35063 ft 435 kts 191°
2026-04-23 07:43 32.32008 109.53008 35053 ft 434 kts 192°
2026-04-23 07:44 32.25972 109.52819 35059 ft 433 kts 192°
2026-04-23 07:44 32.19994 109.52634 35062 ft 432 kts 192°
2026-04-23 07:45 32.13997 109.52437 35063 ft 431 kts 192°
2026-04-23 07:45 32.08007 109.52235 35059 ft 430 kts 193°
2026-04-23 07:46 32.02046 109.52049 35059 ft 428 kts 193°
2026-04-23 07:46 31.96085 109.51860 35053 ft 429 kts 192°
2026-04-23 07:47 31.90104 109.51800 35042 ft 436 kts 185°
2026-04-23 07:47 31.84022 109.53061 35044 ft 447 kts 180°
2026-04-23 07:48 31.77910 109.54512 35051 ft 448 kts 180°
2026-04-23 07:48 31.71812 109.55961 35047 ft 447 kts 180°
2026-04-23 07:49 31.65704 109.57405 35040 ft 448 kts 180°
2026-04-23 07:49 31.59598 109.58844 35034 ft 447 kts 180°
2026-04-23 07:50 31.53488 109.60272 35039 ft 448 kts 180°
2026-04-23 07:50 31.47372 109.61708 35036 ft 448 kts 180°
2026-04-23 07:51 31.41261 109.63143 35031 ft 448 kts 180°
2026-04-23 07:51 31.35131 109.64576 35037 ft 450 kts 180°
2026-04-23 07:52 31.29036 109.66002 35039 ft 450 kts 180°
2026-04-23 07:52 31.22900 109.67438 35037 ft 450 kts 180°
2026-04-23 07:53 31.16752 109.68883 35033 ft 451 kts 179°
2026-04-23 07:53 31.13695 109.69943 35030 ft 467 kts 167°
2026-04-23 07:53 31.10782 109.71779 35028 ft 486 kts 154°
2026-04-23 07:53 31.08174 109.74369 35030 ft 502 kts 141°
2026-04-23 07:54 31.06027 109.77654 35028 ft 517 kts 127°
2026-04-23 07:54 31.04502 109.81489 35029 ft 528 kts 114°
2026-04-23 07:54 31.03320 109.85555 35028 ft 529 kts 114°
2026-04-23 07:55 31.00976 109.93699 35033 ft 531 kts 114°
2026-04-23 07:55 30.98618 110.01867 35028 ft 532 kts 114°
2026-04-23 07:56 30.96284 110.10052 35023 ft 533 kts 114°
2026-04-23 07:56 30.93953 110.18240 35023 ft 533 kts 114°
2026-04-23 07:57 30.91604 110.26457 35033 ft 535 kts 114°
2026-04-23 07:57 30.89257 110.34676 35041 ft 535 kts 114°
2026-04-23 07:58 30.86898 110.42894 35047 ft 536 kts 114°
2026-04-23 07:58 30.84934 110.49721 35046 ft 536 kts 114°
2026-04-23 07:59 30.82560 110.57945 35051 ft 536 kts 114°
2026-04-23 07:59 30.80172 110.66156 35055 ft 536 kts 114°
2026-04-23 08:00 30.77787 110.74362 35060 ft 535 kts 114°
2026-04-23 08:00 30.75405 110.82562 35057 ft 535 kts 114°
2026-04-23 08:01 30.73017 110.90761 35058 ft 535 kts 114°
2026-04-23 08:01 30.70623 110.98948 35065 ft 535 kts 114°
2026-04-23 08:02 30.68221 111.07133 35069 ft 535 kts 114°
2026-04-23 08:02 30.65809 111.15316 35073 ft 535 kts 114°
2026-04-23 08:03 30.63639 111.23616 35070 ft 542 kts 104°
2026-04-23 08:03 30.63231 111.32383 35073 ft 549 kts 85°
2026-04-23 08:04 30.64329 111.41100 35074 ft 549 kts 81°
2026-04-23 08:04 30.65339 111.49892 35072 ft 549 kts 88°
2026-04-23 08:05 30.65789 111.58735 35073 ft 549 kts 88°
2026-04-23 08:05 30.66241 111.67577 35080 ft 549 kts 88°
2026-04-23 08:06 30.66698 111.76427 35082 ft 549 kts 88°
2026-04-23 08:06 30.67147 111.85273 35081 ft 549 kts 88°
2026-04-23 08:07 30.67590 111.94115 35077 ft 549 kts 88°
2026-04-23 08:07 30.68080 112.02968 35087 ft 549 kts 87°
2026-04-23 08:08 30.68717 112.11818 35081 ft 550 kts 86°
2026-04-23 08:08 30.69371 112.20676 35097 ft 551 kts 86°
2026-04-23 08:09 30.69975 112.29546 35096 ft 550 kts 87°
2026-04-23 08:09 30.70548 112.38407 35095 ft 550 kts 87°
2026-04-23 08:10 30.71119 112.47278 35093 ft 551 kts 87°
2026-04-23 08:10 30.71995 112.60581 35102 ft 550 kts 87°
2026-04-23 08:11 30.72563 112.69445 35106 ft 551 kts 88°
2026-04-23 08:11 30.73123 112.78322 35107 ft 551 kts 88°
2026-04-23 08:12 30.73682 112.87201 35106 ft 551 kts 88°
2026-04-23 08:12 30.74231 112.96079 35103 ft 551 kts 88°
2026-04-23 08:13 30.74774 113.04964 35102 ft 551 kts 88°
2026-04-23 08:13 30.75309 113.13843 35095 ft 551 kts 88°
2026-04-23 08:14 30.75686 113.22733 35096 ft 550 kts 90°
2026-04-23 08:14 30.75848 113.31621 35094 ft 550 kts 91°
2026-04-23 08:15 30.75990 113.40517 35096 ft 550 kts 91°
2026-04-23 08:15 30.76203 113.49418 35097 ft 551 kts 90°
2026-04-23 08:16 30.76447 113.58312 35090 ft 551 kts 90°
2026-04-23 08:16 30.76665 113.67220 35093 ft 551 kts 91°
2026-04-23 08:17 30.76855 113.76124 35096 ft 551 kts 91°
2026-04-23 08:17 30.77039 113.84970 35094 ft 551 kts 91°
2026-04-23 08:18 30.77229 113.93875 35093 ft 551 kts 91°
2026-04-23 08:18 30.77417 114.02772 35093 ft 551 kts 91°
2026-04-23 08:19 30.77723 114.11679 35087 ft 551 kts 89°
2026-04-23 08:19 30.78593 114.20549 35075 ft 554 kts 76°
2026-04-23 08:20 30.81089 114.29006 35083 ft 553 kts 67°
2026-04-23 08:20 30.83448 114.37516 35081 ft 553 kts 82°
2026-04-23 08:21 30.83628 114.46376 35074 ft 545 kts 102°
2026-04-23 08:21 30.81682 114.54743 35075 ft 529 kts 122°
2026-04-23 08:22 30.78088 114.62054 35075 ft 519 kts 130°
2026-04-23 08:22 30.74279 114.69190 35072 ft 519 kts 130°
2026-04-23 08:23 30.70474 114.76330 35076 ft 520 kts 130°
2026-04-23 08:23 30.66662 114.83486 35081 ft 521 kts 130°
2026-04-23 08:24 30.62853 114.90625 35096 ft 520 kts 130°
2026-04-23 08:24 30.59051 114.97721 35096 ft 521 kts 130°
2026-04-23 08:25 30.55227 115.04852 35094 ft 521 kts 130°
2026-04-23 08:25 30.51403 115.11984 35095 ft 521 kts 130°
2026-04-23 08:26 30.47571 115.19105 35096 ft 521 kts 131°
2026-04-23 08:26 30.43734 115.26223 35088 ft 521 kts 131°
2026-04-23 08:27 30.39841 115.33286 35096 ft 520 kts 132°
2026-04-23 08:27 30.35862 115.40265 35096 ft 519 kts 133°
2026-04-23 08:28 30.31864 115.47237 35095 ft 520 kts 133°
2026-04-23 08:28 30.27893 115.54224 35095 ft 520 kts 133°
2026-04-23 08:29 30.23927 115.61236 35097 ft 521 kts 133°
2026-04-23 08:29 30.19950 115.68234 35089 ft 521 kts 133°
2026-04-23 08:30 30.15964 115.75229 35098 ft 521 kts 133°
2026-04-23 08:30 30.11978 115.82219 35088 ft 521 kts 133°
2026-04-23 08:31 30.07987 115.89198 35088 ft 521 kts 133°
2026-04-23 08:31 30.04024 115.96127 35081 ft 521 kts 133°
2026-04-23 08:32 30.00060 116.03136 35096 ft 522 kts 133°
2026-04-23 08:32 29.96088 116.10167 35100 ft 523 kts 133°
2026-04-23 08:33 29.92102 116.17177 35103 ft 523 kts 133°
2026-04-23 08:33 29.88098 116.24181 35104 ft 523 kts 133°
2026-04-23 08:34 29.84100 116.31175 35101 ft 523 kts 133°
2026-04-23 08:34 29.80108 116.38175 35100 ft 523 kts 133°
2026-04-23 08:35 29.76110 116.45170 35089 ft 523 kts 133°
2026-04-23 08:35 29.72100 116.52156 35097 ft 523 kts 133°
2026-04-23 08:36 29.68096 116.59126 35093 ft 523 kts 133°
2026-04-23 08:36 29.64085 116.66098 35087 ft 523 kts 133°
2026-04-23 08:37 29.60068 116.73066 35097 ft 523 kts 133°
2026-04-23 08:37 29.56075 116.79996 35089 ft 524 kts 133°
2026-04-23 08:38 29.52041 116.86971 35079 ft 524 kts 133°
2026-04-23 08:38 29.48006 116.93950 35078 ft 524 kts 133°
2026-04-23 08:39 29.43969 117.00927 35080 ft 525 kts 133°
2026-04-23 08:39 29.39920 117.07901 35080 ft 526 kts 133°
2026-04-23 08:40 29.36305 117.15279 35081 ft 542 kts 118°
2026-04-23 08:40 29.34546 117.23804 35073 ft 559 kts 98°
2026-04-23 08:41 29.34561 117.32746 35066 ft 562 kts 92°
2026-04-23 08:41 29.34672 117.41700 35076 ft 562 kts 92°
2026-04-23 08:42 29.35214 117.50648 35066 ft 565 kts 79°
2026-04-23 08:42 29.37628 117.59183 35067 ft 563 kts 63°
2026-04-23 08:43 29.40809 117.67397 35068 ft 563 kts 64°
2026-04-23 08:43 29.43925 117.75585 35080 ft 564 kts 64°
2026-04-23 08:44 29.47048 117.83824 35077 ft 564 kts 64°
2026-04-23 08:44 29.50191 117.92082 34886 ft 565 kts 64°
2026-04-23 08:45 29.51761 117.96207 34635 ft 564 kts 64°
2026-04-23 08:45 29.53373 118.00294 34384 ft 561 kts 59°
2026-04-23 08:45 29.55472 118.04030 34135 ft 552 kts 46°
2026-04-23 08:45 29.58060 118.07235 33890 ft 546 kts 38°
2026-04-23 08:46 29.60755 118.10305 33631 ft 545 kts 39°
2026-04-23 08:46 29.63442 118.13369 33379 ft 544 kts 39°
2026-04-23 08:46 29.66124 118.16438 33129 ft 544 kts 39°
2026-04-23 08:46 29.68775 118.19559 32875 ft 547 kts 45°
2026-04-23 08:47 29.70962 118.23178 32614 ft 555 kts 60°
2026-04-23 08:47 29.72408 118.27290 32372 ft 557 kts 75°
2026-04-23 08:47 29.73037 118.31672 32127 ft 555 kts 90°
2026-04-23 08:47 29.72874 118.36084 31877 ft 552 kts 99°
2026-04-23 08:48 29.72489 118.40478 31616 ft 552 kts 100°
2026-04-23 08:48 29.72089 118.44879 31372 ft 552 kts 99°
2026-04-23 08:48 29.71681 118.49261 31126 ft 551 kts 100°
2026-04-23 08:48 29.71270 118.53654 30879 ft 552 kts 100°
2026-04-23 08:49 29.70865 118.58031 30619 ft 550 kts 99°
2026-04-23 08:49 29.70598 118.60934 30453 ft 550 kts 99°
2026-04-23 08:49 29.70060 118.66787 30118 ft 551 kts 99°
2026-04-23 08:49 29.69655 118.71170 29868 ft 551 kts 99°
2026-04-23 08:50 29.69389 118.74072 29704 ft 551 kts 99°
2026-04-23 08:50 29.68991 118.78448 29452 ft 551 kts 99°
2026-04-23 08:50 29.68466 118.84262 29123 ft 551 kts 99°
2026-04-23 08:50 29.68200 118.87214 28951 ft 551 kts 99°
2026-04-23 08:51 29.67801 118.91596 28646 ft 550 kts 99°
2026-04-23 08:51 29.67396 118.95989 27399 ft 558 kts 99°
2026-04-23 08:51 29.66981 119.00448 26118 ft 564 kts 99°
2026-04-23 08:51 29.66560 119.04952 24772 ft 564 kts 99°
2026-04-23 08:52 29.66399 119.09378 23579 ft 546 kts 89°
2026-04-23 08:52 29.66839 119.13637 22659 ft 525 kts 79°
2026-04-23 08:52 29.67779 119.17610 21822 ft 512 kts 70°
2026-04-23 08:52 29.69200 119.21353 21020 ft 512 kts 60°
2026-04-23 08:53 29.71082 119.24808 20187 ft 507 kts 52°
2026-04-23 08:53 29.73131 119.28093 19391 ft 504 kts 52°
2026-04-23 08:53 29.75167 119.31364 18592 ft 501 kts 52°
2026-04-23 08:53 29.77191 119.34623 17820 ft 497 kts 53°
2026-04-23 08:54 29.79191 119.37846 17068 ft 493 kts 53°
2026-04-23 08:54 29.81169 119.41043 16408 ft 488 kts 53°
2026-04-23 08:54 29.83119 119.44204 15808 ft 480 kts 53°
2026-04-23 08:54 29.85042 119.47318 15126 ft 472 kts 53°
2026-04-23 08:55 29.86892 119.50317 14289 ft 446 kts 52°
2026-04-23 08:55 29.88628 119.53139 13683 ft 421 kts 53°
2026-04-23 08:55 29.90307 119.55863 13117 ft 422 kts 53°
2026-04-23 08:55 29.92024 119.58645 12537 ft 419 kts 53°
2026-04-23 08:56 29.93703 119.61366 11944 ft 414 kts 53°
2026-04-23 08:56 29.95342 119.64025 11387 ft 412 kts 53°
2026-04-23 08:56 29.96973 119.66673 11191 ft 396 kts 53°
2026-04-23 08:56 29.98531 119.69212 11072 ft 380 kts 53°
2026-04-23 08:57 30.00023 119.71649 10932 ft 365 kts 53°
2026-04-23 08:57 30.01463 119.74003 10808 ft 352 kts 53°
2026-04-23 08:57 30.02848 119.76265 10673 ft 339 kts 53°
2026-04-23 08:57 30.04055 119.78537 10552 ft 328 kts 61°
2026-04-23 08:58 30.05093 119.80848 10432 ft 318 kts 60°
2026-04-23 08:58 30.06100 119.83081 10164 ft 311 kts 60°
2026-04-23 08:58 30.07089 119.85272 10095 ft 307 kts 60°
2026-04-23 08:58 30.08071 119.87449 10015 ft 305 kts 60°
2026-04-23 08:59 30.09061 119.89642 9483 ft 312 kts 60°
2026-04-23 08:59 30.10046 119.91829 9245 ft 303 kts 60°
2026-04-23 08:59 30.11011 119.93975 8920 ft 299 kts 60°
2026-04-23 08:59 30.11963 119.96087 8587 ft 295 kts 60°
2026-04-23 09:00 30.12908 119.98188 8167 ft 295 kts 60°
2026-04-23 09:00 30.13854 120.00300 7409 ft 293 kts 60°
2026-04-23 09:00 30.14747 120.02326 7145 ft 271 kts 63°
2026-04-23 09:00 30.15112 120.04344 6997 ft 249 kts 96°
2026-04-23 09:01 30.14495 120.06146 6785 ft 246 kts 130°
2026-04-23 09:01 30.13133 120.07278 6418 ft 244 kts 153°
2026-04-23 09:01 30.11696 120.08300 5988 ft 244 kts 136°
2026-04-23 09:01 30.10869 120.09959 5668 ft 237 kts 100°
2026-04-23 09:02 30.10931 120.11817 5438 ft 230 kts 68°
2026-04-23 09:02 30.11611 120.13470 5160 ft 227 kts 59°
2026-04-23 09:02 30.12344 120.15078 4865 ft 226 kts 60°
2026-04-23 09:02 30.13067 120.16686 4566 ft 225 kts 60°
2026-04-23 09:03 30.13777 120.18274 4267 ft 223 kts 60°
2026-04-23 09:03 30.14485 120.19863 3975 ft 222 kts 60°
2026-04-23 09:03 30.15190 120.21442 3683 ft 220 kts 60°
2026-04-23 09:03 30.15891 120.23011 3391 ft 219 kts 60°
2026-04-23 09:04 30.16586 120.24570 3104 ft 217 kts 60°
2026-04-23 09:04 30.17280 120.26126 2813 ft 218 kts 60°
2026-04-23 09:04 30.17970 120.27672 2515 ft 215 kts 61°
2026-04-23 09:04 30.18647 120.29194 2251 ft 209 kts 62°
2026-04-23 09:05 30.19296 120.30653 1975 ft 200 kts 63°
2026-04-23 09:05 30.19910 120.32034 1713 ft 187 kts 63°
2026-04-23 09:05 30.20478 120.33312 1484 ft 169 kts 61°
2026-04-23 09:05 30.20983 120.34448 1271 ft 150 kts 62°
2026-04-23 09:06 30.21446 120.35488 1068 ft 142 kts 62°
2026-04-23 09:06 30.21892 120.36492 874 ft 139 kts 61°
2026-04-23 09:06 30.22337 120.37488 674 ft 142 kts 61°
2026-04-23 09:06 30.22784 120.38482 529 ft 141 kts 60°
2026-04-23 09:07 30.23230 120.39475 325 ft 141 kts 61°
2026-04-23 09:07 30.23671 120.40481 144 ft 140 kts 62°
2026-04-23 09:07 30.24106 120.41469 36 ft 130 kts 61°
2026-04-23 09:07 30.24444 120.42232 32 ft 79 kts 63°
2026-04-23 09:08 30.24618 120.42631 30 ft 39 kts 63°
2026-04-23 09:08 30.24708 120.42861 31 ft 28 kts 76°
2026-04-23 09:08 30.24725 120.43074 33 ft 26 kts 90°
2026-04-23 09:08 30.24722 120.43187 32 ft 13 kts 89°
2026-04-23 09:09 30.24678 120.43260 32 ft 11 kts 154°
2026-04-23 09:09 30.24604 120.43255 32 ft 15 kts 226°
2026-04-23 09:09 30.24537 120.43109 31 ft 27 kts 243°
2026-04-23 09:09 30.24450 120.42910 31 ft 26 kts 243°
2026-04-23 09:10 30.24385 120.42798 32 ft 11 kts 198°
2026-04-23 09:10 30.24229 120.42820 31 ft 12 kts 153°
2026-04-23 09:10 30.24158 120.42862 31 ft 12 kts 153°
2026-04-23 09:11 30.24116 120.42870 31 ft 5 kts 206°
2026-04-23 09:11 30.24101 120.42844 32 ft 3 kts 242°
2026-04-23 09:11 30.24095 120.42833 31 ft 1 kts 242°
2026-04-23 09:11 30.24095 120.42832 32 ft 0 kts 242°